ASTRA 1N

Last updated on Wed May 21 2025 00:02:43 GMT+0000 (Coordinated Universal Time)

1 37775U 11041A 25140.40392063 .00000128 00000+0 00000+0 0 9994 2 37775 0.0551 352.7582 0005769 65.8763 344.2860 1.00268467 40584
UTC large
Height (km)
Speed (km/s)
/
Latitude / Longitude
Inclination (degrees)
Orbital Period (minutes)
Azimuth
Elevation
Range (km)
Doppler Factor

Next 0 passes for location: London (51.5072 / 0.1276)

Sorry there are no passes over London.